sat.trackr.live / text

‹ back to catalog

YUNHAI-2 02A

NORAD 59280 · 2024-052A

PAYLOAD ACTIVE UNKNOWN

§ Identity

Operator
Country
PRC
Launch date
2024-03-21
Launch site
JSC
Launch vehicle
Mass (kg)
RCS (m²)

External: N2YO · Heavens-Above · Gunter

§ Orbital elements

Epoch: 2026-05-25T03:36:02.541888Z

Period
100.84 min
Inclination
50.0065°
Eccentricity
0.0011367
Mean motion
14.27950811 rev/d
Perigee alt
790.4 km
Apogee alt
806.7 km
Semi-major
7,176.7 km
B*
5.1127e-5
RAAN
180.3297°
Arg perigee
64.6766°
Mean anomaly
295.5325°
Rev number
9,493

§ Raw data

YUNHAI-2 02A1 59280U 24052A   26145.15002942 -.00000034  00000+0  51127-4 0  99952 59280  50.0065 180.3297 0011367  64.6766 295.5325 14.27950811 94939

JSON: /api/v1/satellites/59280 · /tle

For live sub-satellite position, see the globe view (requires WebGL).

§ Visibility from observer

Set your observer location to see the next 7 days of passes ≥ 10°. The values pass through the URL so the page stays shareable.

No JS? Fill the form by hand. The geolocation button needs JavaScript.